Regional Weather Roundup
Issued by NWS Charleston, WV

Home | Current Version | Previous Version | Graphics & Text | Print | Product List | Glossary Off
Versions: 1 2 3 4 5 6 7 8 9 10 11 12 13 14 15 16 17 18 19 20 21 22 23 24 25 26 27 28 29 30 31 32 33 34 35 36 37 38 39 40 41 42 43 44 45 46 47 48 49 50

000
ASUS41 KRLX 041910
RWRRLX
West Virginia Regional Weather Roundup
National Weather Service Charleston WV
300 PM EDT SAT JUL 04 2015

Note: "fair" indicates few or no clouds below 12,000 feet with no
significant weather and/or obstructions to visibility.

WVZ003-042000-
Northern Panhandle of West Virginia

CITY           SKY/WX    TMP DP  RH WIND       PRES   REMARKS
WHEELING       MOSUNNY   78  59  51 W9        29.99R
$$

WVZ009-042000-
Northwest West Virginia

CITY           SKY/WX    TMP DP  RH WIND       PRES   REMARKS
PARKERSBURG    MOSUNNY   80  62  54 CALM      30.01F
$$

WVZ006-042000-
Western West Virginia

CITY           SKY/WX    TMP DP  RH WIND       PRES   REMARKS
HUNTINGTON     CLOUDY    75  66  73 CALM      29.99F
$$

WVZ015-042000-
West Central West Virginia

CITY           SKY/WX    TMP DP  RH WIND       PRES   REMARKS
CHARLESTON     PTSUNNY   78  63  59 CALM      30.00F
$$

WVZ022-031-042000-
North Central West Virginia

CITY           SKY/WX    TMP DP  RH WIND       PRES   REMARKS
CLARKSBURG     MOSUNNY   79  64  60 VRB6      29.99S
MORGANTOWN     MOSUNNY   81  60  48 W6        29.98S
$$

WVZ025-035-042-045-042000-
Southern West Virginia

CITY           SKY/WX    TMP DP  RH WIND       PRES   REMARKS
BECKLEY        CLOUDY    69  64  84 W5        30.07S
LOGAN          CLOUDY    73  68  83 CALM      30.00F
BLUEFIELD      CLOUDY    76  62  62 VRB7      30.08S
LEWISBURG      CLOUDY    73  66  80 W7        30.05S
$$

WVZ047-042000-
Northern Mountains of West Virginia

CITY           SKY/WX    TMP DP  RH WIND       PRES   REMARKS
ELKINS         PTSUNNY   75  62  64 NW8       30.03R
$$

WVZ052-042000-
Eastern Panhandle of West Virginia

CITY           SKY/WX    TMP DP  RH WIND       PRES   REMARKS
MARTINSBURG    PTSUNNY   79  68  69 N8        29.92S
PETERSBURG     CLOUDY    80  62  54 NW6       29.95S
$$


USA.gov is the U.S. government's official web portal to all federal, state and local government web resources and services.